ONEWEB-0044, 45150

Orbit data source: Space-Track

ONEWEB-0044, 45150 is a payload satellite owned by One Web (UK) in LEO that was launched on Thu, 06 Feb 2020 UTC via a SOYUZ-2-1B launch vehicle from the Tyuratam Missile And Space Complex (TTMTR). Payload-class satellites include a variety of spacecraft equipped with specific instruments for various scientific and technological missions. These include communications satellites like Starlink; space stations such as the ISS; scientific satellites like the Hubble; Earth observation satellites from companies like Planet Labs, Umbra, and HawkEye 360; GPS; miniature CubeSats for education and research; and military/defense satellites.

Loading next visibility...
Identifier
45150, 2020-008V
Orbit
LEO
Country
Flag of UKUK
Related business
Manufacturer
One Web
Mission
Operational Commercial Communications
Bus & Motor
ARROW, Unknown motor
Mass
148 kg wet, ~140 kg dry
Launch date (UTC)
2020-02-06 (6 years ago)
Launch vehicle
SOYUZ-2-1B
Launch site
Tyuratam Missile And Space Complex (TTMTR)
Object type
Payload
Rocket body
Debris
Shape & HBR
Trap Box + 2 Pan, 6.7 m
Radar Cross Section
3.464 m², Large (>1 m²)

Expand to show TLE details & history
Last TLE update: 5 hours ago

TLE from 5 hours ago
0 ONEWEB-0044
1 45150U 20008V   26035.14100843  .00000621  00000-0  17426-2 0  9993
2 45150  87.8762  62.7712 0001752  89.2464 270.8864 13.10374700291056
Epoch: 2026-02-04T03:23Z
TLE epoch observation values (Epoch: 2026-02-04T03:23:03.128Z)
Latitude
-0.00002°
Longitude
-122.30369°
Altitude
1,224.577 km
Speed
7.242 km/s
True Right ascension
04h 11m 05s
True Declination
0° 00' 00"
Sunlit
Object was in daylight at epoch
Visualization orbit readout
Latitude
Unknown
Longitude
Unknown
Altitude
Unknown
Speed
Unknown
Apparent Right ascension
Unknown
Apparent Declination
Unknown
Sunlit
N/A
Visualization observer readout
Local Sidereal Time
10:05:25
Azimuth
Unknown
Elevation
Unknown
Doppler factor
Unknown
Orbital elements
Apogee altitude
1,220.161 km
Perigee altitude
1,217.499 km
Semi-major axis
7,596.967 km
Eccentricity
0.00018
Inclination
87.8762°
RAAN
62.7712°
Arg. of periapsis
89.2464°
True anomaly
270.86633°
Mean anomaly
270.8864°
Eccentric anomaly
270.87636°
Mean motion
3.2778 °/min
Orbital period
109.83 mins
BSTAR
0.0017426
Loading maneuver chart data...
Computing Atmospheric mass density...
Loading historical data...
Loading historical data...
Loading historical data...
Loading historical data...
Loading historical data...
Loading historical data...
Loading historical data...

Documentation

Showing up to 5 results
|